Back to catalog

ONEWEB-0508

AliveCommunicationsPO
NORAD 54126·PAYLOAD·🇬🇧 United Kingdom

Launched Oct 22, 2022 from Satish Dhawan Space Centre

Loading…

Next Passes (next 24 hours)

TLE

FreshSource: CelesTrak SupGP

Epoch: Sep 14, 2026, 16:03 UTC

1 54126C 22138P   26257.66925185 -.00002505  00000+0 -62656-2 0  2575
2 54126  87.9104 287.1478 0002013  84.1733 334.9812 13.19726818    15

Track ONEWEB-0508 in real time with AllMySat

Download on the App Store